KJWG

Details ICAO KJWG
Name WATONGA RGNL
Region United States
Timezone America/Chicago (UTC-5.0)
Plans Departing 0
Arriving 2
Stats Elevation 1,548 ft / 472 m (AMSL)
Location 35.864691° -98.420753°
Runways 1
Magnetic Variation 4.237° E
Sunrise 2018-05-27 11:22:07 UTC / 2018-05-27 06:22:07 Local
Sunset 2018-05-28 01:42:31 UTC / 2018-05-27 20:42:31 Local
Advertisement - Login to hide

Runways

ID Width Length Bearing (true) Bearing (mag) Surface Threshold Offset Overrun Length
17 60 ft / 18 m 4,012 ft / 1,223 m 179.97° 175.73° Asphalt 0 ft / 0 m 0 ft / 0 m
35 60 ft / 18 m 4,012 ft / 1,223 m 359.97° 355.73° Asphalt 0 ft / 0 m 0 ft / 0 m

Map

Weather


0- 5 10 15 20 25 30 35+ Temperature / ° C

Clouds and Precipitation
Forecast for 2018-05-28 00:00 UTC. Updated an hour ago

Ground ~20,000 ft ~40,000 ft Winds

METAR

KJWG 272355Z AUTO 12012G18KT 10SM CLR 32/20 A2984 RMK AO2 T03230198 10350 20323

TAF

Not found

Frequencies

Recorded 134.17 MHz AWOS 3
Approach 120.52 MHz VANCE APP/DEP
Unicom 122.80 MHz CTAF/UNICOM
Warning: Do not use this data for real-world aviation or navigation. No guarantee of current accuracy is given.